sat.trackr.live / text

‹ back to catalog

STARLINK-3508

NORAD 51862 · 2022-022L

PAYLOAD ACTIVE UNKNOWN

§ Identity

Operator
Country
US
Launch date
2022-03-03
Launch site
AFETR
Launch vehicle
Mass (kg)
RCS (m²)

Purposes: comms

External: N2YO · Heavens-Above · Gunter

§ Orbital elements

Epoch: 2026-05-24T23:12:39.655296Z

Period
95.44 min
Inclination
53.2126°
Eccentricity
0.0001371
Mean motion
15.08854089 rev/d
Perigee alt
538.8 km
Apogee alt
540.6 km
Semi-major
6,917.8 km
B*
-1.8395e-4
RAAN
26.6962°
Arg perigee
97.3760°
Mean anomaly
262.7388°
Rev number
23,468

§ Raw data

STARLINK-35081 51862U 22022L   26144.96712564 -.00003216  00000+0 -18395-3 0  99992 51862  53.2126  26.6962 0001371  97.3760 262.7388 15.08854089234685

JSON: /api/v1/satellites/51862 · /tle

For live sub-satellite position, see the globe view (requires WebGL).

§ Visibility from observer

Set your observer location to see the next 7 days of passes ≥ 10°. The values pass through the URL so the page stays shareable.

No JS? Fill the form by hand. The geolocation button needs JavaScript.